contact:dominique.lefevre@mio.osupytheas.fr, maurice.libes@osupytheas.fr, didier.mallarino@osupytheas.fr
Project:EMSO http://www.emso-fr.org/EMSO-France
Depth: 2436.0 m
Title:EMSO Ligure Ouest : Data MII capteur CSTAR
DateTime,Latitude,Longitude,Instrument_Serial,Reference_Counts,Signal_Counts,Corrected_Signal_raw_counts,Calculated_Beam_c_inverse_meters,Internal_thermistor_counts
DateTime,Latitude,Longitude,Instrument_Serial,Reference_Counts,Signal_Counts,Corrected_Signal_raw_counts,Calculated_Beam_c_inverse_meters,Internal_thermistor_counts
2023-07-09T00:00:25,42.805,6.029,CST-1368DR,4262,4682,11659,01.169,552
2023-07-09T00:03:26,42.805,6.029,CST-1368DR,4262,4683,11661,01.168,552
2023-07-09T00:06:28,42.805,6.029,CST-1368DR,4262,4689,11675,01.163,552
2023-07-09T00:09:29,42.805,6.029,CST-1368DR,4262,4685,11665,01.167,552
2023-07-09T00:12:31,42.805,6.029,CST-1368DR,4262,4685,11666,01.166,552
2023-07-09T00:15:33,42.805,6.029,CST-1368DR,4262,4685,11666,01.166,552
2023-07-09T00:18:34,42.805,6.029,CST-1368DR,4262,4684,11664,01.167,552
2023-07-09T00:21:36,42.805,6.029,CST-1368DR,4262,4685,11666,01.166,552
2023-07-09T00:24:37,42.805,6.029,CST-1368DR,4262,4682,11659,01.169,552
2023-07-09T00:27:39,42.805,6.029,CST-1368DR,4262,4684,11664,01.167,552
2023-07-09T00:30:41,42.805,6.029,CST-1368DR,4262,4685,11666,01.166,552
2023-07-09T00:33:42,42.805,6.029,CST-1368DR,4262,4683,11662,01.168,552
2023-07-09T00:36:44,42.805,6.029,CST-1368DR,4262,4686,11667,01.166,552
2023-07-09T00:39:45,42.805,6.029,CST-1368DR,4262,4681,11656,01.170,552
2023-07-09T00:42:47,42.805,6.029,CST-1368DR,4262,4682,11659,01.169,552
2023-07-09T00:45:48,42.805,6.029,CST-1368DR,4262,4684,11664,01.167,552
2023-07-09T00:48:50,42.805,6.029,CST-1368DR,4262,4684,11662,01.168,552
2023-07-09T00:51:52,42.805,6.029,CST-1368DR,4262,4682,11658,01.169,552
2023-07-09T00:54:53,42.805,6.029,CST-1368DR,4262,4684,11662,01.168,552
2023-07-09T00:57:55,42.805,6.029,CST-1368DR,4262,4684,11662,01.168,552
2023-07-09T01:00:56,42.805,6.029,CST-1368DR,4262,4685,11667,01.166,552
2023-07-09T01:03:58,42.805,6.029,CST-1368DR,4262,4680,11653,01.171,552
2023-07-09T01:06:59,42.805,6.029,CST-1368DR,4262,4681,11656,01.170,552
2023-07-09T01:10:01,42.805,6.029,CST-1368DR,4262,4681,11656,01.170,552
2023-07-09T01:13:03,42.805,6.029,CST-1368DR,4262,4681,11656,01.170,552
2023-07-09T01:16:04,42.805,6.029,CST-1368DR,4262,4680,11654,01.171,552
2023-07-09T01:19:06,42.805,6.029,CST-1368DR,4262,4681,11656,01.170,552
2023-07-09T01:22:07,42.805,6.029,CST-1368DR,4262,4680,11654,01.171,552
2023-07-09T01:25:09,42.805,6.029,CST-1368DR,4262,4680,11654,01.171,552
2023-07-09T01:28:11,42.805,6.029,CST-1368DR,4262,4680,11653,01.171,552
2023-07-09T01:31:12,42.805,6.029,CST-1368DR,4262,4681,11657,01.170,552
2023-07-09T01:34:14,42.805,6.029,CST-1368DR,4262,4679,11651,01.172,552
2023-07-09T01:37:15,42.805,6.029,CST-1368DR,4262,4679,11652,01.171,552
2023-07-09T01:40:17,42.805,6.029,CST-1368DR,4262,4680,11653,01.171,552
2023-07-09T01:43:18,42.805,6.029,CST-1368DR,4262,4680,11653,01.171,552
2023-07-09T01:46:20,42.805,6.029,CST-1368DR,4262,4680,11653,01.171,552
2023-07-09T01:49:22,42.805,6.029,CST-1368DR,4262,4679,11650,01.172,552
2023-07-09T01:52:23,42.805,6.029,CST-1368DR,4262,4680,11654,01.171,552
2023-07-09T01:55:25,42.805,6.029,CST-1368DR,4262,4677,11647,01.173,552
2023-07-09T01:58:26,42.805,6.029,CST-1368DR,4262,4679,11652,01.171,552
2023-07-09T02:01:28,42.805,6.029,CST-1368DR,4262,4678,11649,01.172,552
2023-07-09T02:04:29,42.805,6.029,CST-1368DR,4262,4678,11649,01.172,552
2023-07-09T02:07:31,42.805,6.029,CST-1368DR,4262,4676,11643,01.174,552
2023-07-09T02:10:33,42.805,6.029,CST-1368DR,4262,4677,11645,01.174,552
2023-07-09T02:13:34,42.805,6.029,CST-1368DR,4262,4678,11648,01.173,552
2023-07-09T02:16:36,42.805,6.029,CST-1368DR,4262,4677,11645,01.174,552
2023-07-09T02:19:37,42.805,6.029,CST-1368DR,4262,4676,11644,01.174,552
2023-07-09T02:22:39,42.805,6.029,CST-1368DR,4262,4678,11649,01.172,552
2023-07-09T02:25:41,42.805,6.029,CST-1368DR,4262,4673,11636,01.177,552
2023-07-09T02:28:42,42.805,6.029,CST-1368DR,4262,4671,11631,01.178,552
2023-07-09T02:31:44,42.805,6.029,CST-1368DR,4262,4671,11631,01.178,552
2023-07-09T02:34:45,42.805,6.029,CST-1368DR,4262,4676,11643,01.174,552
2023-07-09T02:37:47,42.805,6.029,CST-1368DR,4262,4671,11632,01.178,552
2023-07-09T02:40:48,42.805,6.029,CST-1368DR,4262,4668,11623,01.181,552
2023-07-09T02:43:50,42.805,6.029,CST-1368DR,4262,4674,11638,01.176,552
2023-07-09T02:46:52,42.805,6.029,CST-1368DR,4262,4670,11629,01.179,552
2023-07-09T02:49:53,42.805,6.029,CST-1368DR,4262,4672,11633,01.178,552
2023-07-09T02:52:55,42.805,6.029,CST-1368DR,4262,4671,11631,01.178,552
2023-07-09T02:55:56,42.805,6.029,CST-1368DR,4262,4672,11633,01.178,552
2023-07-09T02:58:58,42.805,6.029,CST-1368DR,4262,4676,11643,01.174,552
2023-07-09T03:01:59,42.805,6.029,CST-1368DR,4262,4673,11636,01.177,552
2023-07-09T03:05:01,42.805,6.029,CST-1368DR,4262,4677,11645,01.174,552
2023-07-09T03:08:03,42.805,6.029,CST-1368DR,4262,4673,11635,01.177,552
2023-07-09T03:11:04,42.805,6.029,CST-1368DR,4262,4669,11625,01.181,552
2023-07-09T03:14:06,42.805,6.029,CST-1368DR,4262,4672,11634,01.177,552
2023-07-09T03:17:07,42.805,6.029,CST-1368DR,4262,4669,11626,01.180,552
2023-07-09T03:20:09,42.805,6.029,CST-1368DR,4262,4672,11634,01.177,552
2023-07-09T03:23:11,42.805,6.029,CST-1368DR,4262,4673,11635,01.177,552
2023-07-09T03:26:12,42.805,6.029,CST-1368DR,4262,4673,11635,01.177,552
2023-07-09T03:29:14,42.805,6.029,CST-1368DR,4262,4671,11631,01.178,552
2023-07-09T03:32:15,42.805,6.029,CST-1368DR,4262,4667,11622,01.182,552
2023-07-09T03:35:17,42.805,6.029,CST-1368DR,4262,4673,11636,01.177,552
2023-07-09T03:38:18,42.805,6.029,CST-1368DR,4262,4672,11634,01.177,552
2023-07-09T03:41:20,42.805,6.029,CST-1368DR,4262,4670,11628,01.180,552
2023-07-09T03:44:22,42.805,6.029,CST-1368DR,4262,4665,11616,01.184,552
2023-07-09T03:47:23,42.805,6.029,CST-1368DR,4262,4668,11625,01.181,552
2023-07-09T03:50:25,42.805,6.029,CST-1368DR,4262,4673,11635,01.177,552
2023-07-09T03:53:26,42.805,6.029,CST-1368DR,4262,4671,11630,01.179,552
2023-07-09T03:56:28,42.805,6.029,CST-1368DR,4262,4668,11623,01.181,552
2023-07-09T03:59:29,42.805,6.029,CST-1368DR,4262,4671,11630,01.179,552
2023-07-09T04:02:31,42.805,6.029,CST-1368DR,4262,4669,11627,01.180,552
2023-07-09T04:05:33,42.805,6.029,CST-1368DR,4262,4668,11623,01.181,552
2023-07-09T04:08:34,42.805,6.029,CST-1368DR,4262,4674,11638,01.176,552
2023-07-09T04:11:36,42.805,6.029,CST-1368DR,4262,4671,11632,01.178,552
2023-07-09T04:14:37,42.805,6.029,CST-1368DR,4262,4668,11623,01.181,552
2023-07-09T04:17:39,42.805,6.029,CST-1368DR,4262,4672,11633,01.178,552
2023-07-09T04:20:41,42.805,6.029,CST-1368DR,4262,4665,11615,01.184,552
2023-07-09T04:23:42,42.805,6.029,CST-1368DR,4262,4669,11627,01.180,552
2023-07-09T04:26:44,42.805,6.029,CST-1368DR,4262,4671,11630,01.179,552
2023-07-09T04:29:45,42.805,6.029,CST-1368DR,4262,4669,11626,01.180,552
2023-07-09T04:32:47,42.805,6.029,CST-1368DR,4262,4666,11620,01.182,552
2023-07-09T04:35:48,42.805,6.029,CST-1368DR,4262,4666,11618,01.183,552
2023-07-09T04:38:50,42.805,6.029,CST-1368DR,4262,4670,11628,01.180,552
2023-07-09T04:41:52,42.805,6.029,CST-1368DR,4262,4669,11626,01.180,552
2023-07-09T04:44:53,42.805,6.029,CST-1368DR,4262,4663,11611,01.185,552
2023-07-09T04:47:55,42.805,6.029,CST-1368DR,4262,4667,11621,01.182,552
2023-07-09T04:50:56,42.805,6.029,CST-1368DR,4262,4664,11614,01.184,552
2023-07-09T04:53:58,42.805,6.029,CST-1368DR,4262,4667,11621,01.182,552
2023-07-09T04:56:59,42.805,6.029,CST-1368DR,4262,4665,11616,01.184,552
2023-07-09T05:00:01,42.805,6.029,CST-1368DR,4261,4664,11616,01.184,552
2023-07-09T05:03:03,42.805,6.029,CST-1368DR,4262,4669,11626,01.180,552
2023-07-09T05:06:04,42.805,6.029,CST-1368DR,4262,4668,11623,01.181,552
2023-07-09T05:09:06,42.805,6.029,CST-1368DR,4262,4668,11623,01.181,552
2023-07-09T05:12:07,42.805,6.029,CST-1368DR,4262,4674,11639,01.176,552
2023-07-09T05:15:09,42.805,6.029,CST-1368DR,4262,4670,11628,01.180,552
2023-07-09T05:18:11,42.805,6.029,CST-1368DR,4262,4669,11626,01.180,552
2023-07-09T05:21:12,42.805,6.029,CST-1368DR,4262,4673,11636,01.177,552
2023-07-09T05:24:14,42.805,6.029,CST-1368DR,4262,4672,11633,01.178,552
2023-07-09T05:27:15,42.805,6.029,CST-1368DR,4261,4670,11631,01.178,552
2023-07-09T05:30:17,42.805,6.029,CST-1368DR,4262,4673,11636,01.177,552
2023-07-09T05:33:18,42.805,6.029,CST-1368DR,4262,4674,11639,01.176,552
2023-07-09T05:36:20,42.805,6.029,CST-1368DR,4262,4671,11631,01.178,552
2023-07-09T05:39:22,42.805,6.029,CST-1368DR,4262,4670,11628,01.180,552
2023-07-09T05:42:23,42.805,6.029,CST-1368DR,4262,4678,11648,01.173,552
2023-07-09T05:45:25,42.805,6.029,CST-1368DR,4262,4669,11627,01.180,552
2023-07-09T05:48:26,42.805,6.029,CST-1368DR,4262,4670,11628,01.180,552
2023-07-09T05:51:28,42.805,6.029,CST-1368DR,4262,4668,11625,01.181,552
2023-07-09T05:54:29,42.805,6.029,CST-1368DR,4262,4668,11623,01.181,552
2023-07-09T05:57:31,42.805,6.029,CST-1368DR,4261,4669,11628,01.180,552
2023-07-09T06:00:33,42.805,6.029,CST-1368DR,4262,4678,11649,01.172,552
2023-07-09T06:03:34,42.805,6.029,CST-1368DR,4262,4671,11630,01.179,552
2023-07-09T06:06:36,42.805,6.029,CST-1368DR,4262,4671,11631,01.178,552
2023-07-09T06:09:37,42.805,6.029,CST-1368DR,4262,4673,11636,01.177,552
2023-07-09T06:12:39,42.805,6.029,CST-1368DR,4262,4671,11632,01.178,552
2023-07-09T06:15:41,42.805,6.029,CST-1368DR,4262,4674,11639,01.176,552
2023-07-09T06:18:42,42.805,6.029,CST-1368DR,4262,4675,11641,01.175,552
2023-07-09T06:21:44,42.805,6.029,CST-1368DR,4261,4671,11633,01.178,552
2023-07-09T06:24:45,42.805,6.029,CST-1368DR,4261,4671,11634,01.177,552
2023-07-09T06:27:47,42.805,6.029,CST-1368DR,4262,4669,11626,01.180,552
2023-07-09T06:30:50,42.805,6.029,CST-1368DR,4261,4672,11637,01.176,552
2023-07-09T06:33:52,42.805,6.029,CST-1368DR,4261,4671,11635,01.177,552
2023-07-09T06:36:54,42.805,6.029,CST-1368DR,4261,4670,11631,01.178,552
2023-07-09T06:39:55,42.805,6.029,CST-1368DR,4261,4671,11635,01.177,552
2023-07-09T06:42:57,42.805,6.029,CST-1368DR,4261,4668,11627,01.180,552
2023-07-09T06:45:58,42.805,6.029,CST-1368DR,4261,4671,11633,01.178,552
2023-07-09T06:49:00,42.805,6.029,CST-1368DR,4261,4679,11653,01.171,552
2023-07-09T06:52:01,42.805,6.029,CST-1368DR,4261,4674,11640,01.175,552
2023-07-09T06:55:03,42.805,6.029,CST-1368DR,4261,4670,11631,01.178,552
2023-07-09T06:58:05,42.805,6.029,CST-1368DR,4261,4670,11630,01.179,552
2023-07-09T07:01:06,42.805,6.029,CST-1368DR,4261,4671,11635,01.177,552
2023-07-09T07:04:08,42.805,6.029,CST-1368DR,4261,4678,11650,01.172,552
2023-07-09T07:07:09,42.805,6.029,CST-1368DR,4261,4672,11636,01.177,552
2023-07-09T07:10:11,42.805,6.029,CST-1368DR,4261,4680,11655,01.170,552
2023-07-09T07:13:12,42.805,6.029,CST-1368DR,4261,4673,11640,01.175,552
2023-07-09T07:16:14,42.805,6.029,CST-1368DR,4261,4671,11635,01.177,552
2023-07-09T07:19:16,42.805,6.029,CST-1368DR,4261,4669,11628,01.180,552
2023-07-09T07:22:17,42.805,6.029,CST-1368DR,4261,4671,11633,01.178,552
2023-07-09T07:25:19,42.805,6.029,CST-1368DR,4261,4667,11625,01.181,552
2023-07-09T07:28:20,42.805,6.029,CST-1368DR,4261,4668,11627,01.180,552
2023-07-09T07:31:22,42.805,6.029,CST-1368DR,4261,4674,11642,01.175,552
2023-07-09T07:34:24,42.805,6.029,CST-1368DR,4261,4677,11648,01.173,552
2023-07-09T07:37:25,42.805,6.029,CST-1368DR,4261,4678,11651,01.172,552
2023-07-09T07:40:27,42.805,6.029,CST-1368DR,4261,4672,11635,01.177,552
2023-07-09T07:43:28,42.805,6.029,CST-1368DR,4261,4669,11629,01.179,552
2023-07-09T07:46:30,42.805,6.029,CST-1368DR,4261,4672,11636,01.177,552
2023-07-09T07:49:31,42.805,6.029,CST-1368DR,4261,4671,11633,01.178,552
2023-07-09T07:52:33,42.805,6.029,CST-1368DR,4261,4671,11635,01.177,552
2023-07-09T07:55:35,42.805,6.029,CST-1368DR,4261,4675,11643,01.174,552
2023-07-09T07:58:36,42.805,6.029,CST-1368DR,4261,4669,11629,01.179,552
2023-07-09T08:01:38,42.805,6.029,CST-1368DR,4261,4680,11657,01.170,552
2023-07-09T08:04:39,42.805,6.029,CST-1368DR,4261,4670,11631,01.178,552
2023-07-09T08:07:41,42.805,6.029,CST-1368DR,4261,4669,11629,01.179,552
2023-07-09T08:10:42,42.805,6.029,CST-1368DR,4261,4670,11631,01.178,552
2023-07-09T08:13:44,42.805,6.029,CST-1368DR,4261,4672,11636,01.177,552
2023-07-09T08:16:46,42.805,6.029,CST-1368DR,4261,4669,11628,01.180,552
2023-07-09T08:19:47,42.805,6.029,CST-1368DR,4261,4674,11641,01.175,552
2023-07-09T08:22:49,42.805,6.029,CST-1368DR,4261,4671,11633,01.178,552
2023-07-09T08:25:50,42.805,6.029,CST-1368DR,4261,4676,11647,01.173,552
2023-07-09T08:28:52,42.805,6.029,CST-1368DR,4261,4670,11631,01.178,552
2023-07-09T08:31:53,42.805,6.029,CST-1368DR,4261,4679,11653,01.171,552
2023-07-09T08:34:55,42.805,6.029,CST-1368DR,4261,4672,11636,01.177,552
2023-07-09T08:37:56,42.805,6.029,CST-1368DR,4261,4675,11643,01.174,552
2023-07-09T08:40:58,42.805,6.029,CST-1368DR,4261,4673,11640,01.175,552
2023-07-09T08:43:59,42.805,6.029,CST-1368DR,4261,4667,11625,01.181,552
2023-07-09T08:47:01,42.805,6.029,CST-1368DR,4261,4669,11630,01.179,552
2023-07-09T08:50:03,42.805,6.029,CST-1368DR,4261,4673,11639,01.176,552
2023-07-09T08:53:04,42.805,6.029,CST-1368DR,4261,4671,11633,01.178,552
2023-07-09T08:56:06,42.805,6.029,CST-1368DR,4261,4668,11625,01.181,552
2023-07-09T08:59:07,42.805,6.029,CST-1368DR,4261,4675,11643,01.174,552
2023-07-09T09:02:09,42.805,6.029,CST-1368DR,4261,4674,11642,01.175,552
2023-07-09T09:05:11,42.805,6.029,CST-1368DR,4261,4671,11635,01.177,552
2023-07-09T09:08:12,42.805,6.029,CST-1368DR,4261,4676,11645,01.174,552
2023-07-09T09:11:14,42.805,6.029,CST-1368DR,4261,4675,11643,01.174,552
2023-07-09T09:14:15,42.805,6.029,CST-1368DR,4261,4671,11633,01.178,552
2023-07-09T09:17:17,42.805,6.029,CST-1368DR,4261,4671,11633,01.178,552
2023-07-09T09:20:18,42.805,6.029,CST-1368DR,4261,4671,11633,01.178,552
2023-07-09T09:23:20,42.805,6.029,CST-1368DR,4261,4678,11650,01.172,552
2023-07-09T09:26:22,42.805,6.029,CST-1368DR,4261,4675,11643,01.174,552
2023-07-09T09:29:23,42.805,6.029,CST-1368DR,4261,4672,11636,01.177,552
2023-07-09T09:32:25,42.805,6.029,CST-1368DR,4261,4677,11648,01.173,552
2023-07-09T09:35:26,42.805,6.029,CST-1368DR,4261,4669,11629,01.179,552
2023-07-09T09:38:28,42.805,6.029,CST-1368DR,4261,4669,11628,01.180,552
2023-07-09T09:41:29,42.805,6.029,CST-1368DR,4261,4671,11633,01.178,552
2023-07-09T09:44:31,42.805,6.029,CST-1368DR,4261,4677,11650,01.172,552
2023-07-09T09:47:33,42.805,6.029,CST-1368DR,4261,4675,11644,01.174,552
2023-07-09T09:50:34,42.805,6.029,CST-1368DR,4261,4669,11628,01.180,552
2023-07-09T09:53:36,42.805,6.029,CST-1368DR,4261,4675,11644,01.174,552
2023-07-09T09:56:37,42.805,6.029,CST-1368DR,4261,4670,11630,01.179,552
2023-07-09T09:59:39,42.805,6.029,CST-1368DR,4261,4668,11627,01.180,552
2023-07-09T10:02:41,42.805,6.029,CST-1368DR,4261,4671,11633,01.178,552
2023-07-09T10:05:42,42.805,6.029,CST-1368DR,4261,4669,11628,01.180,552
2023-07-09T10:08:44,42.805,6.029,CST-1368DR,4261,4668,11625,01.181,552
2023-07-09T10:11:45,42.805,6.029,CST-1368DR,4261,4671,11633,01.178,552
2023-07-09T10:14:47,42.805,6.029,CST-1368DR,4261,4669,11628,01.180,552
2023-07-09T10:17:48,42.805,6.029,CST-1368DR,4261,4670,11631,01.178,552
2023-07-09T10:20:50,42.805,6.029,CST-1368DR,4261,4671,11633,01.178,552
2023-07-09T10:23:52,42.805,6.029,CST-1368DR,4261,4667,11623,01.181,552
2023-07-09T10:26:53,42.805,6.029,CST-1368DR,4261,4670,11631,01.178,552
2023-07-09T10:29:55,42.805,6.029,CST-1368DR,4261,4672,11637,01.176,552
2023-07-09T10:32:56,42.805,6.029,CST-1368DR,4261,4672,11635,01.177,552
2023-07-09T10:35:58,42.805,6.029,CST-1368DR,4261,4671,11634,01.177,552
2023-07-09T10:39:00,42.805,6.029,CST-1368DR,4261,4670,11631,01.178,552
2023-07-09T10:42:01,42.805,6.029,CST-1368DR,4261,4675,11644,01.174,552
2023-07-09T10:45:03,42.805,6.029,CST-1368DR,4261,4673,11640,01.175,552
2023-07-09T10:48:04,42.805,6.029,CST-1368DR,4261,4669,11628,01.180,552
2023-07-09T10:51:06,42.805,6.029,CST-1368DR,4261,4672,11635,01.177,552
2023-07-09T10:54:07,42.805,6.029,CST-1368DR,4261,4668,11625,01.181,552
2023-07-09T10:57:09,42.805,6.029,CST-1368DR,4261,4668,11627,01.180,552
2023-07-09T11:00:11,42.805,6.029,CST-1368DR,4261,4669,11628,01.180,552
2023-07-09T11:03:12,42.805,6.029,CST-1368DR,4261,4674,11642,01.175,552
2023-07-09T11:06:14,42.805,6.029,CST-1368DR,4261,4672,11636,01.177,552
2023-07-09T11:09:15,42.805,6.029,CST-1368DR,4261,4671,11634,01.177,552
2023-07-09T11:12:17,42.805,6.029,CST-1368DR,4261,4678,11652,01.171,552
2023-07-09T11:15:18,42.805,6.029,CST-1368DR,4261,4673,11638,01.176,552
2023-07-09T11:18:20,42.805,6.029,CST-1368DR,4261,4675,11644,01.174,552
2023-07-09T11:21:22,42.805,6.029,CST-1368DR,4261,4677,11648,01.173,552
2023-07-09T11:24:23,42.805,6.029,CST-1368DR,4261,4676,11646,01.173,552
2023-07-09T11:27:25,42.805,6.029,CST-1368DR,4261,4676,11645,01.174,552
2023-07-09T11:30:26,42.805,6.029,CST-1368DR,4261,4674,11642,01.175,552
2023-07-09T11:33:28,42.805,6.029,CST-1368DR,4261,4675,11643,01.174,552
2023-07-09T11:36:30,42.805,6.029,CST-1368DR,4261,4674,11642,01.175,552
2023-07-09T11:39:31,42.805,6.029,CST-1368DR,4261,4673,11640,01.175,552
2023-07-09T11:42:33,42.805,6.029,CST-1368DR,4261,4674,11642,01.175,552
2023-07-09T11:45:34,42.805,6.029,CST-1368DR,4261,4675,11643,01.174,552
2023-07-09T11:48:36,42.805,6.029,CST-1368DR,4261,4674,11641,01.175,552
2023-07-09T11:51:37,42.805,6.029,CST-1368DR,4261,4674,11642,01.175,552
2023-07-09T11:54:39,42.805,6.029,CST-1368DR,4261,4673,11638,01.176,552
2023-07-09T11:57:41,42.805,6.029,CST-1368DR,4261,4673,11639,01.176,552
2023-07-09T12:00:42,42.805,6.029,CST-1368DR,4261,4674,11640,01.175,552
2023-07-09T12:03:44,42.805,6.029,CST-1368DR,4261,4673,11640,01.175,552
2023-07-09T12:06:45,42.805,6.029,CST-1368DR,4261,4675,11643,01.174,552
2023-07-09T12:09:47,42.805,6.029,CST-1368DR,4261,4669,11630,01.179,552
2023-07-09T12:12:48,42.805,6.029,CST-1368DR,4261,4672,11637,01.176,552
2023-07-09T12:15:50,42.805,6.029,CST-1368DR,4261,4675,11643,01.174,552
2023-07-09T12:18:52,42.805,6.029,CST-1368DR,4261,4672,11637,01.176,552
2023-07-09T12:21:53,42.805,6.029,CST-1368DR,4261,4674,11640,01.175,552
2023-07-09T12:24:55,42.805,6.029,CST-1368DR,4261,4675,11643,01.174,552
2023-07-09T12:27:56,42.805,6.029,CST-1368DR,4261,4672,11637,01.176,552
2023-07-09T12:30:59,42.805,6.029,CST-1368DR,4261,4673,11638,01.176,552
2023-07-09T12:34:00,42.805,6.029,CST-1368DR,4261,4668,11625,01.181,552
2023-07-09T12:37:02,42.805,6.029,CST-1368DR,4261,4668,11626,01.180,552
2023-07-09T12:40:03,42.805,6.029,CST-1368DR,4261,4667,11623,01.181,552
2023-07-09T12:43:05,42.805,6.029,CST-1368DR,4261,4667,11623,01.181,552
2023-07-09T12:46:06,42.805,6.029,CST-1368DR,4261,4667,11625,01.181,552
2023-07-09T12:49:08,42.805,6.029,CST-1368DR,4261,4667,11625,01.181,552
2023-07-09T12:52:10,42.805,6.029,CST-1368DR,4261,4668,11627,01.180,552
2023-07-09T12:55:11,42.805,6.029,CST-1368DR,4261,4667,11623,01.181,552
2023-07-09T12:58:13,42.805,6.029,CST-1368DR,4261,4670,11630,01.179,552
2023-07-09T13:01:14,42.805,6.029,CST-1368DR,4261,4668,11627,01.180,552
2023-07-09T13:04:16,42.805,6.029,CST-1368DR,4261,4669,11630,01.179,552
2023-07-09T13:07:18,42.805,6.029,CST-1368DR,4261,4670,11630,01.179,552
2023-07-09T13:10:19,42.805,6.029,CST-1368DR,4261,4669,11630,01.179,552
2023-07-09T13:13:21,42.805,6.029,CST-1368DR,4261,4669,11628,01.180,552
2023-07-09T13:16:22,42.805,6.029,CST-1368DR,4261,4669,11630,01.179,552
2023-07-09T13:19:24,42.805,6.029,CST-1368DR,4261,4669,11629,01.179,552
2023-07-09T13:22:25,42.805,6.029,CST-1368DR,4261,4673,11638,01.176,552
2023-07-09T13:25:27,42.805,6.029,CST-1368DR,4261,4668,11626,01.180,552
2023-07-09T13:28:29,42.805,6.029,CST-1368DR,4261,4670,11631,01.178,552
2023-07-09T13:31:30,42.805,6.029,CST-1368DR,4261,4670,11630,01.179,552
2023-07-09T13:34:32,42.805,6.029,CST-1368DR,4261,4670,11630,01.179,552
2023-07-09T13:37:33,42.805,6.029,CST-1368DR,4261,4669,11629,01.179,552
2023-07-09T13:40:35,42.805,6.029,CST-1368DR,4261,4676,11646,01.173,552
2023-07-09T13:43:36,42.805,6.029,CST-1368DR,4261,4672,11635,01.177,552
2023-07-09T13:46:38,42.805,6.029,CST-1368DR,4261,4669,11628,01.180,552
2023-07-09T13:49:40,42.805,6.029,CST-1368DR,4261,4669,11628,01.180,552
2023-07-09T13:52:41,42.805,6.029,CST-1368DR,4261,4668,11627,01.180,552
2023-07-09T13:55:43,42.805,6.029,CST-1368DR,4261,4668,11627,01.180,552
2023-07-09T13:58:44,42.805,6.029,CST-1368DR,4261,4668,11625,01.181,552
2023-07-09T14:01:46,42.805,6.029,CST-1368DR,4261,4669,11628,01.180,552
2023-07-09T14:04:48,42.805,6.029,CST-1368DR,4261,4670,11630,01.179,552
2023-07-09T14:07:49,42.805,6.029,CST-1368DR,4261,4667,11625,01.181,552
2023-07-09T14:10:51,42.805,6.029,CST-1368DR,4261,4670,11630,01.179,552
2023-07-09T14:13:52,42.805,6.029,CST-1368DR,4261,4669,11629,01.179,552
2023-07-09T14:16:54,42.805,6.029,CST-1368DR,4261,4670,11630,01.179,552
2023-07-09T14:19:55,42.805,6.029,CST-1368DR,4261,4669,11630,01.179,552
2023-07-09T14:22:57,42.805,6.029,CST-1368DR,4261,4670,11630,01.179,552
2023-07-09T14:25:59,42.805,6.029,CST-1368DR,4261,4668,11627,01.180,552
2023-07-09T14:29:00,42.805,6.029,CST-1368DR,4261,4668,11626,01.180,552
2023-07-09T14:32:02,42.805,6.029,CST-1368DR,4261,4669,11628,01.180,552
2023-07-09T14:35:04,42.805,6.029,CST-1368DR,4261,4668,11626,01.180,552
2023-07-09T14:38:06,42.805,6.029,CST-1368DR,4261,4667,11623,01.181,552
2023-07-09T14:41:07,42.805,6.029,CST-1368DR,4261,4668,11627,01.180,552
2023-07-09T14:44:09,42.805,6.029,CST-1368DR,4261,4667,11625,01.181,552
2023-07-09T14:47:10,42.805,6.029,CST-1368DR,4261,4665,11620,01.182,552
2023-07-09T14:50:12,42.805,6.029,CST-1368DR,4261,4667,11623,01.181,552
2023-07-09T14:53:14,42.805,6.029,CST-1368DR,4261,4667,11623,01.181,552
2023-07-09T14:56:15,42.805,6.029,CST-1368DR,4261,4670,11631,01.178,552
2023-07-09T14:59:17,42.805,6.029,CST-1368DR,4261,4667,11623,01.181,552
2023-07-09T15:02:18,42.805,6.029,CST-1368DR,4261,4668,11626,01.180,552
2023-07-09T15:05:20,42.805,6.029,CST-1368DR,4261,4667,11625,01.181,552
2023-07-09T15:08:21,42.805,6.029,CST-1368DR,4261,4668,11626,01.180,552
2023-07-09T15:11:23,42.805,6.029,CST-1368DR,4261,4667,11625,01.181,552
2023-07-09T15:14:25,42.805,6.029,CST-1368DR,4261,4668,11625,01.181,552
2023-07-09T15:17:26,42.805,6.029,CST-1368DR,4261,4668,11627,01.180,552
2023-07-09T15:20:28,42.805,6.029,CST-1368DR,4261,4669,11628,01.180,552
2023-07-09T15:23:29,42.805,6.029,CST-1368DR,4261,4668,11627,01.180,552
2023-07-09T15:26:31,42.805,6.029,CST-1368DR,4261,4666,11622,01.182,552
2023-07-09T15:29:32,42.805,6.029,CST-1368DR,4261,4663,11613,01.185,552
2023-07-09T15:32:34,42.805,6.029,CST-1368DR,4261,4665,11620,01.182,552
2023-07-09T15:35:36,42.805,6.029,CST-1368DR,4261,4667,11623,01.181,552
2023-07-09T15:38:37,42.805,6.029,CST-1368DR,4261,4665,11620,01.182,552
2023-07-09T15:41:39,42.805,6.029,CST-1368DR,4261,4664,11617,01.183,552
2023-07-09T15:44:40,42.805,6.029,CST-1368DR,4261,4666,11621,01.182,552
2023-07-09T15:47:42,42.805,6.029,CST-1368DR,4261,4664,11617,01.183,552
2023-07-09T15:50:44,42.805,6.029,CST-1368DR,4261,4666,11621,01.182,552
2023-07-09T15:53:45,42.805,6.029,CST-1368DR,4261,4664,11617,01.183,552
2023-07-09T15:56:47,42.805,6.029,CST-1368DR,4261,4664,11616,01.184,552
2023-07-09T15:59:48,42.805,6.029,CST-1368DR,4261,4673,11639,01.176,552
2023-07-09T16:02:50,42.805,6.029,CST-1368DR,4261,4664,11616,01.184,552
2023-07-09T16:05:51,42.805,6.029,CST-1368DR,4261,4664,11617,01.183,552
2023-07-09T16:08:53,42.805,6.029,CST-1368DR,4261,4664,11617,01.183,552
2023-07-09T16:11:55,42.805,6.029,CST-1368DR,4261,4662,11610,01.186,552
2023-07-09T16:14:56,42.805,6.029,CST-1368DR,4261,4664,11617,01.183,552
2023-07-09T16:17:58,42.805,6.029,CST-1368DR,4261,4664,11617,01.183,552
2023-07-09T16:20:59,42.805,6.029,CST-1368DR,4261,4663,11613,01.185,552
2023-07-09T16:24:01,42.805,6.029,CST-1368DR,4261,4662,11611,01.185,552
2023-07-09T16:27:02,42.805,6.029,CST-1368DR,4261,4662,11612,01.185,552
2023-07-09T16:30:08,42.805,6.029,CST-1368DR,4261,4663,11613,01.185,552
2023-07-09T16:33:05,42.805,6.029,CST-1368DR,4261,4664,11617,01.183,552
2023-07-09T16:36:07,42.805,6.029,CST-1368DR,4261,4663,11613,01.185,552